Date,TemperatureHighF,TemperatureAvgF,TemperatureLowF,DewpointHighF,DewpointAvgF,DewpointLowF,HumidityHigh,HumidityAvg,HumidityLow,PressureMaxIn,PressureMinIn,WindSpeedMaxMPH,WindSpeedAvgMPH,GustSpeedMaxMPH,PrecipitationSumIn
2013-1-1,56.9,41.1,32.1,39.0,34.8,32.0,100,81,45,30.30,30.23,4,0,6,0.01
2013-1-2,55.1,41.6,32.7,38.0,33.8,29.0,93,76,46,30.26,30.16,5,1,7,0.00
2013-1-3,55.9,42.2,32.1,42.0,35.3,31.0,94,78,45,30.29,30.18,4,0,7,0.00
2013-1-4,58.2,44.3,35.7,44.0,39.2,35.0,99,84,54,30.31,30.20,4,1,6,0.00
2013-1-5,45.8,42.8,36.5,45.0,41.2,35.0,99,94,84,30.26,30.06,5,1,9,0.61
2013-1-6,55.0,44.9,39.5,47.0,42.6,39.0,100,92,71,30.21,30.08,2,0,5,0.03
2013-1-7,62.9,50.1,39.2,53.0,45.4,39.0,99,84,67,30.26,30.17,5,1,15,0.00
2013-1-8,61.3,50.6,42.7,54.0,48.0,42.0,100,91,76,30.24,30.13,5,1,6,0.00
2013-1-9,48.9,43.4,37.4,49.0,42.4,34.0,100,96,81,30.17,30.00,6,1,12,0.01
2013-1-10,49.9,39.5,32.7,38.0,33.7,31.0,97,81,58,30.22,30.09,8,1,15,0.01
2013-1-11,52.7,41.4,36.3,41.0,34.3,29.0,90,76,59,30.27,30.15,5,0,9,0.00
2013-1-12,52.6,38.5,30.5,36.0,32.3,29.0,96,80,51,30.27,30.14,6,1,7,0.00
2013-1-13,49.9,36.5,27.5,36.0,30.4,17.0,96,80,43,30.27,30.20,6,1,7,0.00
2013-1-14,55.2,40.1,29.4,36.0,27.5,16.0,93,63,37,30.42,30.26,5,1,7,0.00
2013-1-15,54.4,41.1,32.5,39.0,34.8,30.0,96,80,55,30.50,30.40,5,1,8,0.00
2013-1-16,59.6,42.5,32.3,44.0,37.0,32.0,99,83,55,30.46,30.29,5,1,6,0.01
2013-1-17,64.6,46.3,34.7,45.0,39.9,34.0,99,81,44,30.29,30.18,4,1,6,0.01
2013-1-18,64.5,48.6,39.1,46.0,38.3,33.0,91,70,39,30.24,30.16,4,1,6,0.00
2013-1-19,68.5,49.6,39.7,42.0,35.2,29.0,82,60,28,30.25,30.18,3,0,5,0.00
2013-1-20,65.6,50.2,41.1,44.0,35.2,27.0,79,58,37,30.24,30.14,4,1,6,0.00
2013-1-21,64.1,49.4,41.3,44.0,37.4,28.0,84,65,44,30.19,30.10,5,1,8,0.00
2013-1-22,62.2,49.3,38.5,43.0,38.4,32.0,85,67,47,30.13,30.01,6,1,8,0.00
2013-1-23,53.5,48.3,45.9,49.0,43.2,37.0,100,84,53,30.10,29.96,4,1,8,0.59
2013-1-24,60.2,51.3,47.4,57.0,51.0,47.0,100,99,88,30.21,30.08,3,0,4,0.00
2013-1-25,59.3,52.7,48.1,56.0,51.7,48.0,100,96,86,30.21,30.06,3,0,6,0.01
2013-1-26,56.0,47.2,38.8,49.0,42.2,37.0,100,85,57,30.07,29.98,7,1,11,0.01
2013-1-27,56.1,44.6,38.2,39.0,35.3,33.0,92,72,45,30.20,30.07,5,1,12,0.00
2013-1-28,56.2,45.6,38.0,43.0,38.5,34.0,93,77,57,30.31,30.18,4,1,12,0.00
2013-1-29,65.0,50.3,41.5,46.0,40.5,36.0,87,71,45,30.37,30.30,5,1,12,0.00
2013-1-30,66.5,52.5,42.7,51.0,43.6,39.0,92,73,54,30.34,30.27,5,1,8,0.00
2013-1-31,66.7,50.6,41.3,50.0,44.3,40.0,98,81,50,30.30,30.20,4,1,7,0.00
2013-2-1,67.4,52.5,41.6,49.0,44.1,41.0,98,76,45,30.21,30.13,5,1,8,0.01
2013-2-2,59.6,47.8,40.6,51.0,44.5,40.0,99,89,70,30.29,30.20,5,1,8,0.00
2013-2-3,60.5,49.1,40.9,51.0,46.0,40.0,100,90,66,30.25,30.14,5,1,7,0.00
2013-2-4,58.9,47.4,41.0,52.0,45.5,40.0,100,93,73,30.16,30.07,6,1,8,0.01
2013-2-5,59.9,47.2,41.8,50.0,44.3,39.0,100,90,68,30.17,30.07,7,1,9,0.02
2013-2-6,60.1,46.1,36.7,46.0,39.7,36.0,96,80,52,30.21,30.12,6,1,9,0.00
2013-2-7,51.8,43.9,34.9,45.0,39.8,34.0,100,87,54,30.17,30.00,6,1,13,0.27
2013-2-8,58.2,42.8,32.1,44.0,35.8,32.0,100,79,43,30.04,29.96,3,0,10,0.00
2013-2-9,57.0,43.1,30.5,36.0,31.4,25.0,95,67,35,30.11,30.02,6,1,9,0.00
2013-2-10,63.7,46.4,35.3,40.0,35.6,32.0,91,70,37,30.12,30.03,5,1,13,0.00
2013-2-11,65.5,50.2,39.6,40.0,35.7,29.0,85,60,34,30.23,30.11,8,1,10,0.00
2013-2-12,62.5,47.5,37.2,47.0,40.0,36.0,96,77,49,30.37,30.23,6,1,7,0.00
2013-2-13,65.7,49.5,38.1,48.0,41.9,36.0,94,77,52,30.36,30.22,4,1,7,0.00
2013-2-14,71.0,55.1,44.7,52.0,45.6,41.0,95,73,42,30.26,30.17,5,1,8,0.00
2013-2-15,72.5,55.7,43.8,46.0,42.3,38.0,85,64,30,30.28,30.21,5,1,8,0.00
2013-2-16,69.6,54.9,45.4,51.0,44.6,39.0,86,70,44,30.25,30.04,5,1,8,0.00
2013-2-17,63.2,50.2,40.9,47.0,39.8,36.0,88,69,46,30.04,29.97,6,1,8,0.00
2013-2-18,52.2,43.0,36.1,45.0,39.5,35.0,99,88,73,30.01,29.92,6,1,9,0.00
2013-2-19,49.6,40.8,36.0,43.0,36.5,32.0,99,85,59,29.96,29.75,5,1,12,0.20
2013-2-20,58.1,43.9,31.4,41.0,34.5,30.0,94,72,44,30.07,29.86,10,1,13,0.00
2013-2-21,64.2,48.5,37.6,39.0,35.0,29.0,86,63,27,30.17,30.06,7,1,11,0.00
2013-2-22,64.8,50.9,38.6,45.0,38.7,33.0,83,65,42,30.25,30.16,6,1,11,0.00
2013-2-23,58.8,47.4,38.9,44.0,35.8,31.0,94,67,39,30.27,30.16,6,1,13,0.00
2013-2-24,66.0,49.1,37.3,39.0,34.4,29.0,82,60,28,30.27,30.17,6,1,9,0.00
2013-2-25,66.4,51.1,39.6,43.0,33.1,18.0,84,55,16,30.27,30.17,5,1,16,0.00
2013-2-26,68.6,52.2,36.7,42.0,31.9,23.0,71,48,25,30.23,30.16,5,1,9,0.00
2013-2-27,71.0,54.4,40.9,48.0,36.0,23.0,87,51,34,30.37,30.22,3,1,8,0.00
2013-2-28,71.1,57.2,47.8,57.0,50.3,46.0,96,79,53,30.44,30.37,4,0,10,0.00
2013-3-1,71.2,56.7,45.6,54.0,49.3,45.0,99,78,50,30.43,30.25,6,1,9,0.01
2013-3-2,66.5,56.2,49.2,54.0,50.6,47.0,94,82,59,30.25,30.06,4,0,8,0.00
2013-3-3,66.2,53.8,43.2,52.0,47.6,43.0,99,82,49,30.07,30.00,6,1,10,0.00
2013-3-4,55.2,44.2,37.3,49.0,42.6,37.0,100,94,76,30.15,30.06,6,1,9,0.01
2013-3-5,48.9,42.5,35.7,46.0,41.5,36.0,100,96,83,30.08,29.77,12,4,24,1.08
2013-3-6,51.4,44.2,36.0,45.0,41.5,36.0,98,90,67,30.07,29.80,14,4,25,0.40
2013-3-7,52.6,42.6,34.6,43.0,39.1,34.0,100,88,63,30.01,29.91,8,1,8,0.01
2013-3-8,61.5,47.1,35.5,48.0,39.2,35.0,98,77,44,30.04,29.88,7,1,11,0.00
2013-3-9,71.9,53.2,36.3,48.0,40.1,32.0,95,65,24,30.32,30.05,5,0,7,0.00
2013-3-10,70.8,54.1,40.9,46.0,38.6,32.0,85,61,26,30.34,30.24,7,1,10,0.00
2013-3-11,70.4,55.4,42.3,50.0,44.0,38.0,89,68,43,30.26,30.11,7,1,9,0.00
2013-3-12,73.1,58.2,44.7,54.0,48.8,43.0,94,73,48,30.16,30.08,6,1,8,0.00
2013-3-13,77.7,59.8,47.0,55.0,50.1,45.0,96,73,34,30.17,30.07,6,1,9,0.00
2013-3-14,73.4,57.8,48.8,57.0,46.9,37.0,96,71,32,30.16,30.08,4,0,8,0.00
2013-3-15,77.5,58.3,46.8,54.0,44.5,36.0,80,62,34,30.13,30.04,4,0,12,0.00
2013-3-16,74.8,57.7,47.9,48.0,41.2,32.0,85,58,22,30.14,30.02,10,1,14,0.00
2013-3-17,72.1,55.4,43.4,44.0,39.6,30.0,82,59,22,30.14,30.04,6,1,9,0.00
2013-3-18,66.5,52.5,41.8,50.0,42.6,35.0,89,71,48,30.12,30.04,4,1,8,0.00
2013-3-19,57.4,50.1,43.7,53.0,42.8,34.0,98,77,51,30.13,30.06,3,0,5,0.08
2013-3-20,56.0,48.1,42.7,56.0,47.6,42.0,100,98,93,30.16,30.06,3,1,7,0.54
2013-3-21,67.2,50.4,37.5,47.0,40.8,32.0,99,74,30,30.16,30.04,7,1,10,0.01
2013-3-22,68.1,51.2,37.9,41.0,36.0,28.0,86,60,27,30.14,30.05,3,0,8,0.00
2013-3-23,65.4,51.5,38.2,46.0,39.9,35.0,90,67,43,30.14,30.05,7,1,10,0.00
2013-3-24,69.3,54.5,40.9,51.0,43.6,36.0,87,68,45,30.08,29.96,8,1,10,0.00
2013-3-25,58.9,47.6,39.8,49.0,43.8,38.0,98,87,69,30.02,29.94,6,1,10,0.02
2013-3-26,64.3,50.0,41.0,52.0,45.4,41.0,100,86,56,30.01,29.94,8,1,9,0.00
2013-3-27,56.1,49.0,43.4,53.0,47.6,43.0,99,95,85,30.02,29.95,5,1,10,0.00
2013-3-28,62.0,51.5,46.3,58.0,50.4,46.0,100,96,77,30.11,30.02,4,0,6,0.05
2013-3-29,73.5,57.1,43.4,59.0,51.0,43.0,100,82,50,30.10,30.03,7,1,10,0.01
2013-3-30,66.3,53.1,48.3,57.0,50.6,48.0,99,91,58,30.07,30.00,14,1,18,0.05
2013-3-31,55.4,51.8,49.2,55.0,51.6,49.0,100,99,93,30.07,30.00,7,1,12,0.39
2013-4-1,62.4,52.9,46.6,56.0,50.9,46.0,100,93,76,30.16,30.05,5,1,9,0.02
2013-4-2,66.4,53.1,42.8,57.0,49.5,43.0,100,89,66,30.19,30.10,6,1,9,0.01
2013-4-3,71.8,53.2,41.4,58.0,49.1,41.0,100,88,58,30.14,30.00,6,1,9,0.00
2013-4-4,56.3,50.4,46.4,56.0,50.2,46.0,100,99,96,30.13,29.98,6,1,9,0.91
2013-4-5,59.0,52.6,49.5,56.0,51.3,49.0,100,95,80,30.20,30.12,6,1,9,0.06
2013-4-6,66.0,55.3,49.3,58.0,50.9,46.0,100,87,55,30.19,30.13,5,1,10,0.03
2013-4-7,61.0,52.1,44.2,57.0,49.0,43.0,100,90,69,30.15,29.82,7,2,13,0.17
2013-4-8,67.4,51.1,41.4,43.0,39.5,35.0,96,67,37,30.07,29.81,11,2,24,0.00
2013-4-9,77.8,59.1,43.5,46.0,40.8,33.0,84,55,25,30.14,30.07,4,0,11,0.00
2013-4-10,84.8,67.4,55.2,56.0,48.3,44.0,74,53,27,30.18,30.04,9,1,20,0.00
2013-4-11,75.6,60.9,47.6,52.0,45.0,37.0,85,59,26,30.07,29.84,4,1,18,0.00
2013-4-12,77.9,59.2,44.2,52.0,44.1,36.0,94,62,31,29.91,29.82,6,1,11,0.00
2013-4-13,75.3,61.0,48.8,49.0,40.8,35.0,70,49,30,29.89,29.80,7,1,15,0.00
2013-4-14,69.6,55.1,45.4,48.0,36.2,21.0,95,53,25,29.92,29.86,17,2,20,0.00
2013-4-15,59.1,48.6,39.7,43.0,36.5,33.0,94,66,43,29.99,29.86,14,2,17,0.00
2013-4-16,68.8,52.5,38.6,40.0,34.7,28.0,75,54,24,30.20,30.00,5,1,12,0.00
2013-4-17,74.2,57.5,43.2,42.0,35.2,29.0,69,46,23,30.30,30.18,4,0,7,0.00
2013-4-18,73.6,60.1,45.6,46.0,40.2,33.0,78,52,25,30.27,30.19,10,1,10,0.00
2013-4-19,82.5,63.5,49.4,56.0,47.2,42.0,87,59,29,30.22,30.09,7,2,24,0.00
2013-4-20,80.7,65.4,52.3,51.0,43.4,36.0,67,47,20,30.11,29.97,9,1,11,0.00
2013-4-21,82.8,66.9,49.5,54.0,47.4,44.0,86,54,26,30.03,29.92,7,1,10,0.00
2013-4-22,87.3,70.0,55.9,56.0,48.6,43.0,76,50,22,29.96,29.84,6,1,13,0.00
2013-4-23,79.5,66.5,45.6,48.0,34.2,13.0,85,35,15,29.92,29.84,7,1,9,0.00
2013-4-24,64.7,50.2,40.5,51.0,44.9,39.0,98,83,61,29.97,29.81,8,2,9,0.00
2013-4-25,65.1,51.4,44.0,53.0,46.8,43.0,97,85,62,30.13,29.97,6,1,9,0.00
2013-4-26,71.8,52.8,42.9,57.0,48.2,42.0,100,86,57,30.23,30.13,6,1,10,0.00
2013-4-27,78.7,57.4,43.0,58.0,49.8,43.0,100,79,45,30.23,30.06,6,1,8,0.01
2013-4-28,87.0,67.0,50.3,58.0,52.1,44.0,95,64,31,30.06,29.88,6,1,9,0.00
2013-4-29,91.2,72.3,56.8,55.0,49.4,43.0,75,48,22,29.89,29.77,5,1,14,0.00
2013-4-30,87.2,69.9,55.5,47.0,40.1,30.0,67,38,14,29.86,29.77,4,0,11,0.00
2013-5-1,87.9,71.8,58.2,38.0,26.0,10.0,45,20,8,30.07,29.85,6,1,9,0.00
2013-5-2,88.7,71.2,55.4,43.0,31.5,24.0,46,25,11,30.14,30.07,5,1,12,0.00
2013-5-3,89.3,71.9,56.5,44.0,35.6,25.0,44,28,16,30.07,29.78,6,1,15,0.00
2013-5-4,88.5,68.8,50.3,50.0,40.6,27.0,94,43,15,29.77,29.54,8,2,12,0.00
2013-5-5,57.7,53.4,50.7,53.0,49.5,48.0,94,86,78,29.84,29.60,13,4,17,0.00
2013-5-6,65.3,56.9,49.4,53.0,49.6,47.0,95,78,56,29.97,29.82,11,1,11,0.00
2013-5-7,68.4,56.8,47.6,54.0,49.7,47.0,97,79,53,30.04,29.97,10,1,11,0.00
2013-5-8,65.7,53.5,47.0,55.0,50.1,46.0,97,88,69,30.13,30.03,7,1,8,0.00
2013-5-9,71.3,56.0,45.8,57.0,50.4,45.0,97,83,60,30.16,30.07,6,2,8,0.01
2013-5-10,78.2,58.5,45.5,61.0,52.0,45.0,98,81,53,30.17,30.09,6,2,9,0.00
2013-5-11,85.5,64.9,49.0,62.0,54.5,48.0,98,73,41,30.13,30.04,5,1,8,0.01
2013-5-12,86.6,67.7,50.6,62.0,53.4,46.0,94,65,27,30.12,30.00,5,1,9,0.00
2013-5-13,88.8,68.1,52.8,62.0,50.3,40.0,74,55,31,30.05,29.91,6,1,11,0.00
2013-5-14,89.7,70.3,55.7,54.0,45.6,36.0,71,45,20,29.95,29.86,4,1,9,0.00
2013-5-15,80.5,61.6,48.0,50.0,42.8,37.0,74,53,27,30.00,29.93,8,1,13,0.00
2013-5-16,71.8,60.4,49.5,54.0,49.1,45.0,84,68,48,30.00,29.93,9,1,13,0.00
2013-5-17,70.0,57.1,43.5,51.0,45.5,42.0,94,68,41,30.06,29.95,7,1,12,0.00
2013-5-18,81.1,62.0,43.6,53.0,45.3,41.0,93,59,28,30.12,30.05,7,1,16,0.00
2013-5-19,82.1,67.4,52.0,51.0,44.3,31.0,66,46,16,30.12,29.98,8,1,12,0.00
2013-5-20,87.1,73.9,59.6,49.0,42.6,36.0,63,35,17,30.00,29.87,7,1,11,0.00
2013-5-21,72.3,62.1,47.7,46.0,39.2,27.0,67,44,26,29.98,29.86,10,2,17,0.00
2013-5-22,68.3,54.5,43.1,42.0,34.0,29.0,72,48,26,30.03,29.91,8,2,16,0.00
2013-5-23,70.2,56.2,42.9,45.0,39.8,37.0,81,57,32,30.01,29.90,10,2,19,0.00
2013-5-24,75.2,57.7,40.4,48.0,42.1,37.0,88,59,34,30.00,29.91,7,1,10,0.00
2013-5-25,77.7,59.7,43.7,48.0,43.6,38.0,82,58,31,30.03,29.93,6,1,14,0.00
2013-5-26,72.8,60.3,50.9,52.0,48.7,45.0,91,68,43,30.10,30.02,11,1,19,0.00
2013-5-27,60.5,53.7,48.2,55.0,50.2,43.0,97,88,74,30.10,30.00,5,1,12,0.20
2013-5-28,75.2,60.7,52.6,59.0,54.4,51.0,98,82,52,30.00,29.91,8,1,13,0.02
2013-5-29,78.5,63.1,52.8,55.0,51.1,45.0,92,68,40,29.95,29.89,5,1,9,0.00
2013-5-30,82.2,63.1,44.7,50.0,42.6,37.0,85,52,22,29.98,29.91,4,1,11,0.00
2013-5-31,89.2,70.5,51.9,54.0,47.3,42.0,74,47,26,30.01,29.91,5,1,8,0.00
2013-6-1,94.9,75.1,59.7,56.0,49.2,45.0,64,42,24,29.91,29.75,5,1,12,0.00
2013-6-2,87.7,72.5,58.2,56.0,48.8,41.0,69,45,27,29.75,29.61,6,2,8,0.00
2013-6-3,65.2,57.0,48.1,53.0,50.4,47.0,94,79,63,29.88,29.66,9,2,10,0.00
2013-6-4,64.9,54.5,48.2,54.0,50.3,47.0,95,86,68,29.97,29.86,8,2,9,0.00
2013-6-5,73.0,56.6,48.5,57.0,50.9,47.0,95,83,57,30.00,29.91,6,2,9,0.00
2013-6-6,79.9,59.2,47.6,61.0,52.3,47.0,97,81,51,29.95,29.83,6,2,9,0.00
2013-6-7,97.4,69.2,46.5,64.0,54.7,46.0,98,67,25,29.87,29.72,5,1,7,0.01
2013-6-8,95.3,72.7,51.9,67.0,57.6,50.0,94,62,33,29.81,29.66,8,2,10,0.00
2013-6-9,62.1,55.5,52.0,55.0,52.6,50.0,96,90,77,29.88,29.81,6,2,9,0.00
2013-6-10,57.9,54.2,52.5,55.0,52.7,51.0,97,94,88,29.98,29.80,5,1,8,0.07
2013-6-11,78.1,62.8,50.8,61.0,54.2,42.0,97,76,43,29.99,29.88,5,1,10,0.00
2013-6-12,84.9,65.6,48.7,46.0,39.6,32.0,75,44,15,29.97,29.89,10,1,12,0.00
2013-6-13,84.3,66.9,51.2,48.0,41.2,34.0,61,41,23,30.07,29.97,8,1,11,0.00
2013-6-14,85.4,72.0,57.3,50.0,42.5,21.0,66,39,10,29.99,29.79,6,1,11,0.00
2013-6-15,84.0,67.7,52.1,56.0,48.9,39.0,82,54,29,29.95,29.79,6,1,9,0.00
2013-6-16,86.1,70.6,56.2,52.0,45.5,39.0,65,43,25,30.04,29.95,5,1,11,0.00
2013-6-17,81.3,65.5,50.6,55.0,50.3,44.0,82,60,39,30.05,29.99,8,1,11,0.00
2013-6-18,72.2,60.4,50.9,51.0,47.6,44.0,89,65,40,30.00,29.94,7,1,15,0.00
2013-6-19,79.8,61.9,47.0,50.0,45.8,43.0,89,60,27,30.05,29.99,8,1,11,0.00
2013-6-20,83.7,65.8,49.4,48.0,43.9,39.0,79,49,25,30.00,29.92,6,1,10,0.00
2013-6-21,88.6,70.7,53.0,50.0,41.1,24.0,65,39,10,29.96,29.88,7,1,9,0.00
2013-6-22,94.7,73.2,56.2,51.0,46.4,38.0,63,42,14,29.90,29.81,5,1,11,0.00
2013-6-23,68.4,62.5,55.1,60.0,56.1,51.0,94,80,63,29.82,29.78,6,2,9,0.00
2013-6-24,57.3,55.3,54.3,56.0,54.0,53.0,97,95,92,29.89,29.77,5,1,7,0.23
2013-6-25,59.5,57.6,55.2,59.0,57.2,54.0,99,98,97,29.98,29.87,6,2,10,0.89
2013-6-26,76.5,69.2,57.9,67.0,62.9,58.0,99,81,67,30.07,29.97,5,2,8,0.03
2013-6-27,89.9,71.2,55.7,68.0,62.5,55.0,99,77,44,30.08,30.00,6,1,8,0.01
2013-6-28,103.4,81.5,62.2,71.0,59.3,47.0,93,55,15,30.01,29.88,5,1,12,0.00
2013-6-29,104.4,84.7,68.2,64.0,55.8,48.0,55,39,20,29.89,29.77,5,1,13,0.00
2013-6-30,102.2,82.5,68.6,65.0,56.7,50.0,59,43,22,29.80,29.71,7,1,9,0.00
2013-7-1,99.2,81.1,64.7,66.0,59.1,51.0,74,50,25,29.81,29.74,5,1,9,0.00
2013-7-2,93.2,75.9,58.0,69.0,61.7,54.0,91,63,43,29.87,29.77,6,2,12,0.00
2013-7-3,87.0,71.3,55.7,68.0,60.6,54.0,95,72,47,29.87,29.74,8,2,9,0.00
2013-7-4,107.3,86.8,66.5,68.0,54.0,40.0,83,37,14,29.78,29.65,9,2,14,0.00
2013-7-5,83.7,70.4,58.1,60.0,53.4,41.0,79,56,32,29.70,29.63,7,2,10,0.00
2013-7-6,77.4,61.2,51.5,60.0,54.0,50.0,95,79,54,29.77,29.70,8,2,9,0.00
2013-7-7,77.6,59.6,49.3,61.0,52.7,48.0,97,80,49,29.85,29.77,6,2,10,0.00
2013-7-8,79.7,57.4,49.1,61.0,52.0,48.0,98,84,46,29.96,29.85,6,1,9,0.00
2013-7-9,89.4,67.4,46.5,59.0,51.7,45.0,98,65,23,30.02,29.93,7,1,9,0.01
2013-7-10,80.8,61.4,47.3,59.0,51.6,46.0,97,74,31,29.95,29.88,7,2,11,0.00
2013-7-11,77.6,57.1,46.8,59.0,50.8,46.0,97,82,49,29.93,29.85,8,2,9,0.00
2013-7-12,78.1,59.4,49.0,60.0,53.2,48.0,97,82,54,29.94,29.85,5,1,9,0.00
2013-7-13,83.0,64.0,49.4,60.0,53.8,48.0,97,73,36,29.94,29.87,7,2,9,0.01
2013-7-14,80.6,59.9,47.2,61.0,52.1,46.0,97,79,41,29.98,29.88,6,2,9,0.00
2013-7-15,69.0,54.1,47.8,56.0,50.4,47.0,97,88,63,29.91,29.84,6,2,10,0.01
2013-7-16,67.1,55.5,49.6,58.0,52.3,49.0,98,90,71,30.02,29.86,6,1,12,0.03
2013-7-17,79.1,61.1,49.8,61.0,54.6,49.0,97,81,53,30.09,30.02,7,1,9,0.01
2013-7-18,85.3,64.0,47.2,61.0,54.4,46.0,98,75,37,30.04,29.91,5,2,9,0.01
2013-7-19,88.3,66.4,49.9,63.0,55.6,49.0,97,72,37,29.93,29.79,6,2,11,0.00
2013-7-20,87.8,66.4,50.4,64.0,55.8,49.0,96,72,40,29.82,29.70,5,2,9,0.00
2013-7-21,82.9,62.0,48.2,60.0,53.0,47.0,96,75,45,29.87,29.74,6,2,10,0.00
2013-7-22,81.3,62.1,49.5,59.0,53.4,48.0,95,76,43,29.96,29.87,10,2,11,0.00
2013-7-23,78.1,65.2,56.1,61.0,55.6,51.0,91,73,41,29.99,29.93,5,1,8,0.00
2013-7-24,86.1,68.1,53.3,61.0,56.4,51.0,93,70,42,29.97,29.89,6,2,9,0.00
2013-7-25,81.2,64.6,51.8,61.0,55.1,50.0,94,74,48,30.00,29.89,7,2,9,0.00
2013-7-26,79.6,60.1,49.9,61.0,53.4,48.0,97,81,53,30.07,29.99,7,2,9,0.00
2013-7-27,76.4,59.3,49.3,60.0,53.2,48.0,97,82,57,30.01,29.85,7,2,10,0.00
2013-7-28,74.3,57.3,49.4,59.0,52.3,49.0,97,85,58,29.87,29.79,7,2,10,0.01
2013-7-29,65.2,54.0,49.3,57.0,51.5,48.0,98,91,75,30.02,29.83,5,1,9,0.01
2013-7-30,72.1,57.0,48.9,60.0,52.9,47.0,97,87,64,30.11,30.03,6,2,9,0.01
2013-7-31,78.9,61.0,48.3,61.0,52.4,48.0,98,77,43,30.08,29.97,6,2,9,0.00
2013-8-1,84.0,67.1,48.5,58.0,50.2,37.0,90,59,19,30.03,29.93,7,1,11,0.00
2013-8-2,83.6,68.2,53.6,56.0,50.5,46.0,79,56,31,29.95,29.85,7,1,10,0.00
2013-8-3,76.6,60.6,49.4,59.0,52.6,48.0,94,77,52,29.94,29.87,7,2,10,0.00
2013-8-4,72.5,55.6,48.3,58.0,51.0,47.0,97,86,58,30.00,29.94,7,2,9,0.00
2013-8-5,74.8,57.3,48.5,59.0,51.7,47.0,98,83,57,30.02,29.94,6,2,9,0.02
2013-8-6,71.0,55.9,47.3,57.0,51.3,47.0,98,85,61,30.05,29.97,6,1,10,0.00
2013-8-7,66.8,57.4,52.2,57.0,53.4,51.0,95,87,70,30.10,30.03,5,1,10,0.01
2013-8-8,71.9,57.8,50.4,59.0,53.2,49.0,96,86,62,30.03,29.93,7,1,9,0.00
2013-8-9,72.4,57.5,49.5,59.0,52.7,49.0,98,85,61,29.98,29.91,8,2,9,0.00
2013-8-10,74.3,60.1,50.5,60.0,54.6,49.0,96,83,61,30.04,29.98,8,2,9,0.00
2013-8-11,83.9,62.7,49.2,62.0,54.3,48.0,98,78,36,30.02,29.91,5,1,9,0.01
2013-8-12,80.9,60.5,48.5,61.0,53.5,48.0,98,81,49,29.98,29.92,8,2,9,0.01
2013-8-13,93.1,69.8,49.9,59.0,51.1,40.0,96,59,21,29.98,29.89,7,1,12,0.00
2013-8-14,95.1,72.8,57.3,59.0,50.9,42.0,74,49,22,29.94,29.85,6,1,10,0.00
2013-8-15,88.0,71.7,57.4,66.0,60.3,55.0,91,70,44,29.92,29.87,6,1,10,0.00
2013-8-16,87.9,71.9,59.1,66.0,60.1,54.0,95,70,38,29.95,29.89,6,1,10,0.00
2013-8-17,91.3,74.4,59.9,63.0,56.5,49.0,81,56,34,29.94,29.81,6,1,10,0.00
2013-8-18,97.4,76.3,57.5,65.0,58.2,55.0,91,58,26,29.85,29.75,7,1,9,0.00
2013-8-19,90.2,72.2,55.7,63.0,58.2,54.0,92,63,40,29.87,29.76,4,1,6,0.00
2013-8-20,78.0,60.9,54.3,61.0,55.9,53.0,96,85,50,29.89,29.81,7,2,10,0.00
2013-8-21,75.7,60.4,52.3,59.0,55.0,51.0,96,84,55,29.94,29.86,9,2,9,0.00
2013-8-22,73.2,59.4,50.7,60.0,53.9,49.0,97,83,60,29.97,29.88,5,1,9,0.00
2013-8-23,81.1,64.0,51.0,62.0,54.3,46.0,97,74,49,29.91,29.78,6,2,9,0.00
2013-8-24,84.6,68.3,54.4,59.0,53.6,46.0,86,62,39,29.86,29.80,8,1,12,0.00
2013-8-25,74.3,64.7,56.0,63.0,58.6,54.0,94,81,59,29.92,29.85,11,2,11,0.00
2013-8-26,81.6,67.4,56.5,60.0,55.6,49.0,95,69,41,30.00,29.88,5,1,10,0.00
2013-8-27,85.2,68.1,54.1,58.0,52.9,48.0,82,61,35,29.89,29.80,6,1,10,0.00
2013-8-28,81.5,67.1,55.1,64.0,58.7,53.0,94,76,55,29.92,29.82,7,1,11,0.00
2013-8-29,85.7,68.1,54.4,65.0,59.4,53.0,97,76,43,30.04,29.92,6,1,12,0.00
2013-8-30,91.5,74.3,59.3,63.0,58.6,52.0,92,62,33,30.01,29.88,9,1,9,0.00
2013-8-31,84.3,68.3,54.6,59.0,54.3,49.0,92,63,38,29.94,29.85,5,1,11,0.00
2013-9-1,84.7,66.1,53.1,59.0,55.7,51.0,94,72,41,29.92,29.86,5,1,10,0.00
2013-9-2,78.2,63.2,56.4,62.0,57.4,55.0,94,82,57,29.93,29.88,4,1,7,0.00
2013-9-7,92.1,80.7,66.9,51.0,42.4,-99.9,44,28,19,29.85,29.79,8,-20,10,0.00
2013-9-8,93.5,74.0,57.2,56.0,48.4,43.0,66,43,19,29.85,29.75,7,1,10,0.00
2013-9-9,99.7,77.7,61.7,57.0,48.2,41.0,67,39,16,29.78,29.67,7,1,11,0.00
2013-9-10,66.0,58.3,51.7,60.0,55.4,50.0,97,90,71,29.90,29.68,7,2,12,0.00
2013-9-11,63.4,59.6,57.9,60.0,58.1,57.0,97,95,87,30.00,29.90,6,1,7,0.04
2013-9-12,79.9,63.9,55.4,64.0,58.7,54.0,97,85,58,29.98,29.86,5,1,9,0.01
2013-9-13,84.6,64.7,50.7,62.0,56.4,50.0,98,78,46,29.88,29.73,7,1,9,0.01
2013-9-14,81.4,62.4,48.9,61.0,55.1,48.0,98,80,50,29.80,29.70,6,2,9,0.00
2013-9-15,79.3,62.1,48.5,60.0,54.6,48.0,98,79,49,29.84,29.74,8,1,11,0.01
2013-9-16,86.5,66.6,53.0,61.0,55.4,51.0,97,71,37,29.88,29.76,8,1,9,0.00
2013-9-17,79.8,65.7,55.0,54.0,50.8,48.0,85,61,39,29.87,29.77,8,1,24,0.00
2013-9-18,85.2,67.3,53.2,52.0,47.5,44.0,77,52,29,29.91,29.80,10,1,12,0.00
2013-9-19,86.7,68.4,53.7,49.0,43.1,30.0,72,45,13,29.84,29.74,9,1,10,0.00
2013-9-20,74.2,61.3,50.6,61.0,51.1,37.0,97,71,49,29.82,29.74,7,2,13,0.33
2013-9-21,67.9,59.0,51.2,60.0,54.9,50.0,98,87,61,29.89,29.77,8,2,16,0.02
2013-9-22,75.4,60.1,48.7,56.0,51.2,48.0,98,75,43,30.01,29.89,4,1,11,0.03
2013-9-23,81.1,66.3,52.4,62.0,56.1,50.0,93,72,49,30.01,29.92,7,1,11,0.00
2013-9-24,78.0,63.4,54.5,54.0,50.6,47.0,83,65,37,29.97,29.90,7,2,16,0.00
2013-9-25,71.8,58.7,48.5,48.0,44.8,41.0,90,63,34,29.93,29.83,5,1,18,0.00
2013-9-26,79.9,60.7,46.0,44.0,39.5,32.0,75,51,19,30.00,29.86,6,0,9,0.00
2013-9-27,78.6,62.6,48.8,44.0,38.6,32.0,69,45,18,30.10,30.01,6,1,10,0.00
2013-9-28,78.2,62.4,50.8,54.0,44.6,35.0,91,56,21,30.08,30.00,6,1,11,0.00
2013-9-29,62.1,58.7,55.9,61.0,57.1,53.0,98,94,87,30.08,30.04,6,1,8,0.11
2013-9-30,71.8,61.1,49.2,67.0,58.4,47.0,99,91,65,30.04,29.97,4,1,7,0.06
2013-10-1,78.8,59.9,47.5,51.0,47.7,45.0,95,68,33,30.01,29.92,6,1,10,0.06
2013-10-2,79.4,61.2,49.0,49.0,43.2,32.0,90,58,19,30.02,29.93,7,1,16,0.00
2013-10-3,77.8,62.6,52.1,40.0,34.7,22.0,53,38,13,30.08,29.98,8,1,25,0.00
2013-10-4,84.0,68.3,56.8,32.0,25.9,21.0,33,22,10,30.09,30.02,4,0,9,0.00
2013-10-5,84.2,66.7,55.1,32.0,27.5,22.0,40,24,12,30.19,30.09,7,1,10,0.00
2013-10-6,82.3,65.2,53.7,40.0,32.7,29.0,43,31,16,30.12,30.00,5,1,9,0.00
2013-10-7,82.1,65.5,52.3,39.0,32.6,28.0,45,31,16,30.00,29.86,6,1,7,0.00
2013-10-8,75.7,61.0,49.6,47.0,42.4,37.0,74,53,30,29.89,29.70,6,1,9,0.00
2013-10-9,75.8,60.4,49.4,43.0,40.8,36.0,76,52,24,29.76,29.61,9,1,11,0.00
2013-10-10,69.2,60.0,46.9,49.0,44.6,39.0,89,59,41,29.99,29.76,6,2,9,0.00
2013-10-11,67.8,52.5,41.4,50.0,45.7,40.0,96,80,48,30.09,29.98,7,1,9,0.00
2013-10-12,73.8,57.5,45.7,51.0,45.9,42.0,90,68,36,30.00,29.89,10,1,18,0.00
2013-10-13,54.5,49.5,47.0,48.0,45.4,44.0,91,85,77,30.00,29.92,2,0,7,0.00
2013-10-18,56.8,56.2,55.7,39.0,38.4,38.0,52,51,50,30.03,30.02,0,0,0,0.00
2013-10-19,82.7,64.6,52.0,43.0,39.6,37.0,59,42,22,30.07,29.99,6,1,9,0.00
2013-10-20,79.5,62.5,50.8,47.0,42.0,38.0,75,50,26,30.00,29.89,5,1,9,0.00
2013-10-21,76.5,57.6,44.2,50.0,45.5,42.0,93,67,37,29.98,29.91,6,1,9,0.00
2013-10-22,80.2,58.9,45.0,51.0,46.7,42.0,93,68,29,30.01,29.92,7,1,8,0.00
2013-10-23,78.2,55.7,43.4,51.0,46.1,42.0,94,74,36,29.97,29.90,6,1,8,0.00
2013-10-24,64.4,50.2,41.9,51.0,45.6,41.0,98,85,61,30.12,29.95,6,1,8,0.01
2013-10-25,71.5,54.2,42.0,52.0,46.3,41.0,98,78,44,30.18,30.10,5,1,7,0.01
2013-10-26,80.3,61.8,48.0,52.0,44.6,39.0,88,58,26,30.14,30.01,6,1,8,0.00
2013-10-27,63.5,52.5,40.6,49.0,42.2,38.0,95,69,54,30.01,29.62,7,1,18,0.00
2013-10-28,64.2,52.9,45.1,46.0,42.7,40.0,92,70,44,29.81,29.65,7,1,11,0.00
2013-10-29,60.8,50.1,43.4,48.0,44.3,41.0,95,82,61,30.05,29.81,7,1,10,0.00
2013-10-30,64.7,50.6,41.2,47.0,42.2,40.0,95,75,48,30.16,30.05,6,1,9,0.00
2013-10-31,72.9,56.2,45.2,48.0,44.1,40.0,88,66,40,30.17,30.08,5,1,8,0.00
2013-11-1,77.2,60.3,48.6,48.0,46.1,44.0,84,62,34,30.13,30.01,7,1,8,0.00
2013-11-2,75.5,59.3,48.8,52.0,44.0,37.0,83,60,28,30.01,29.89,5,1,16,0.00
2013-11-3,63.6,52.0,44.8,37.0,33.0,28.0,70,50,28,30.05,29.94,7,1,10,0.00
2013-11-4,72.8,54.8,42.3,36.0,31.6,26.0,71,46,18,30.12,29.93,4,0,9,0.00
2013-11-5,77.6,60.8,50.1,46.0,37.9,31.0,73,45,24,30.21,30.10,6,1,10,0.00
2013-11-6,74.5,60.1,50.1,46.0,43.7,38.0,79,57,35,30.25,30.17,7,1,9,0.00
2013-11-7,74.2,60.0,51.4,48.0,42.3,38.0,83,55,33,30.18,30.07,6,1,7,0.00
2013-11-8,76.5,59.5,47.2,50.0,44.2,32.0,80,60,24,30.08,29.94,9,1,11,0.00
2013-11-9,73.4,56.3,45.1,48.0,44.4,41.0,87,67,37,30.04,29.96,8,1,9,0.00
2013-11-10,62.5,49.9,43.5,51.0,43.2,-99.9,95,83,66,30.12,30.01,8,-20,9,0.00
2013-11-11,66.1,52.7,42.7,49.0,45.8,42.0,98,80,51,30.19,30.09,5,1,7,0.00
2013-11-12,75.1,59.1,51.7,51.0,47.4,45.0,83,67,39,30.28,30.17,5,0,8,0.00
2013-11-13,79.7,61.9,52.2,55.0,49.5,46.0,85,66,35,30.26,30.09,6,1,8,0.00
2013-11-14,68.2,57.0,50.6,53.0,43.1,31.0,91,64,29,30.09,29.89,9,1,14,0.00
2013-11-15,67.5,54.5,43.6,41.0,37.9,33.0,75,56,30,29.89,29.72,7,1,14,0.00
2013-11-16,66.6,53.0,42.0,48.0,42.0,34.0,91,68,46,29.91,29.77,5,1,12,0.00
2013-11-17,61.8,49.2,41.1,48.0,44.2,40.0,97,84,53,30.09,29.91,6,1,10,0.00
2013-11-18,56.2,47.3,40.6,48.0,44.3,39.0,97,89,73,30.16,30.08,5,1,8,0.06
2013-11-19,53.0,50.6,47.6,53.0,50.0,46.0,99,97,95,30.11,29.93,4,1,8,0.48
2013-11-20,56.7,52.8,48.8,56.0,52.4,48.0,100,98,94,29.93,29.85,4,0,6,0.01
2013-11-21,62.7,52.5,45.7,48.0,36.2,18.0,98,62,25,30.01,29.89,5,1,12,0.02
2013-11-22,72.5,59.7,47.5,25.0,15.6,8.0,41,19,9,30.04,29.92,7,1,13,0.00
2013-11-23,68.0,55.5,41.1,34.0,23.6,8.0,69,32,13,30.09,29.95,5,1,7,0.00
2013-11-24,63.1,47.6,37.4,45.0,36.6,29.0,92,68,37,30.26,30.09,7,1,9,0.00
2013-11-25,62.7,48.2,38.9,44.0,40.0,37.0,93,75,43,30.34,30.26,5,1,8,0.00
2013-11-26,61.0,50.0,41.5,45.0,40.7,39.0,92,72,48,30.29,30.05,4,0,7,0.00
2013-11-27,63.8,51.7,42.7,46.0,41.2,37.0,86,69,50,30.05,29.86,6,1,7,0.00
2013-11-28,70.1,54.5,44.1,46.0,41.3,39.0,84,63,36,30.08,29.88,6,1,8,0.00
2013-11-29,65.9,49.9,45.2,47.0,40.2,36.0,84,70,51,30.21,30.08,1,0,4,0.00
2013-11-30,68.3,54.2,46.3,48.0,44.6,40.0,87,72,44,30.27,30.19,5,1,7,0.00
2013-12-1,69.4,56.0,47.5,50.0,46.0,43.0,87,71,47,30.34,30.23,6,1,7,0.00
2013-12-2,66.6,54.1,45.4,52.0,46.3,37.0,95,76,53,30.23,29.94,5,1,14,0.00
2013-12-3,55.2,46.4,36.4,49.0,32.7,25.0,91,61,33,29.97,29.85,8,1,15,0.00
2013-12-4,52.1,38.8,29.9,32.0,29.1,26.0,87,70,40,30.11,29.97,7,1,8,0.00
2013-12-5,48.8,35.8,27.8,33.0,27.8,24.0,90,75,44,30.18,30.10,5,1,9,0.00
2013-12-6,43.5,35.8,26.9,43.0,31.4,22.0,96,85,53,30.20,29.93,7,1,12,0.65
2013-12-7,45.2,35.8,27.3,39.0,29.5,24.0,95,79,48,30.27,29.94,7,1,16,0.65
2013-12-8,49.2,34.0,26.6,27.0,24.1,17.0,93,71,30,30.34,30.25,3,-10,6,0.00
2013-12-9,53.6,37.4,27.4,33.0,23.9,14.0,92,62,30,30.44,30.32,5,1,8,0.00
2013-12-10,55.0,39.5,29.8,34.0,29.1,23.0,92,69,37,30.43,30.23,5,1,6,0.00
2013-12-11,60.5,43.6,33.3,37.0,32.9,29.0,87,68,39,30.26,30.20,5,1,6,0.00
2013-12-12,60.5,45.4,37.3,37.0,32.6,27.0,81,63,33,30.27,30.19,6,1,7,0.00
2013-12-13,62.9,46.4,35.6,40.0,35.9,31.0,84,69,42,30.34,30.24,4,1,6,0.00
2013-12-14,64.7,49.1,41.4,45.0,40.2,37.0,86,73,43,30.41,30.32,4,1,6,0.00
2013-12-15,64.5,49.1,39.5,46.0,40.1,35.0,92,73,43,30.38,30.26,5,1,6,0.00
2013-12-16,65.7,52.3,42.7,47.0,40.1,34.0,81,64,42,30.26,30.15,6,1,7,0.00
2013-12-17,65.6,52.2,43.1,48.0,40.9,35.0,80,67,48,30.19,30.05,4,1,5,0.00
2013-12-18,61.3,51.9,44.9,46.0,38.9,35.0,72,62,51,30.05,29.77,4,1,11,0.00
2013-12-19,63.3,48.9,39.3,37.0,32.5,27.0,77,56,28,29.96,29.74,7,1,14,0.00
2013-12-20,68.3,50.6,36.1,42.0,27.0,13.0,67,43,19,30.02,29.93,4,1,11,0.00
2013-12-21,69.7,55.9,47.2,48.0,44.6,42.0,88,68,39,30.08,29.97,4,1,9,0.00
2013-12-22,69.6,54.6,46.3,50.0,43.1,36.0,87,67,48,30.28,30.08,4,1,6,0.00
2013-12-23,67.8,53.0,43.1,48.0,43.9,41.0,91,73,47,30.40,30.28,4,0,7,0.00
2013-12-24,71.0,55.7,46.3,50.0,45.0,42.0,87,69,44,30.34,30.21,5,1,6,0.00
2013-12-25,68.7,52.5,42.7,47.0,40.7,36.0,89,67,35,30.30,30.21,4,1,6,0.00
2013-12-26,69.4,53.7,45.2,43.0,34.8,25.0,68,50,35,30.26,30.18,4,1,6,0.00
2013-12-27,62.6,51.0,44.2,46.0,35.9,29.0,71,57,38,30.24,30.12,3,0,3,0.00
2013-12-28,72.5,54.4,41.6,44.0,32.8,21.0,67,46,25,30.15,30.05,3,0,5,0.00
2013-12-29,68.8,55.3,46.3,35.0,25.9,17.0,54,34,17,30.17,30.08,5,1,6,0.00
2013-12-30,64.5,50.5,41.5,36.0,32.3,25.0,80,51,32,30.25,30.16,5,1,8,0.00
2013-12-31,63.2,48.6,40.7,43.0,37.6,34.0,84,68,41,30.28,30.17,4,1,7,0.00
2014-1-1,65.5,51.6,42.4,45.0,35.7,28.0,75,56,35,30.20,30.13,4,1,6,0.00
2014-1-2,65.3,52.8,45.0,45.0,39.5,34.0,76,62,44,30.18,30.07,4,1,6,0.00